Regional Weather Roundup
Issued by NWS

Home | Current Version | Previous Version | Graphics & Text | Print | Product List | Glossary Off
Versions: 1 2 3 4 5 6 7 8 9 10 11 12 13 14 15 16 17 18 19 20 21 22 23 24 25 26 27 28 29 30 31 32 33 34 35 36 37 38 39 40 41 42 43 44 45 46 47 48 49 50

003
ASUS43 KDMX 201506
RWRIA

WEATHER ROUNDUP FOR IOWA
NATIONAL WEATHER SERVICE DES MOINES IA
900 AM CST FRI JAN 20 2017

NOTE: "FAIR" INDICATES FEW OR NO CLOUDS BELOW 12,000 FEET WITH NO
SIGNIFICANT WEATHER AND/OR OBSTRUCTIONS TO VISIBILITY.

* - THESE STATIONS ARE NOT NWS STATIONS...THUS NOT UNDER NWS
QUALITY CONTROL.  THEY ALSO DO NOT REPORT WEATHER SUCH
AS PRECIPITATION OR FOG.

IAZ001>003-012>014-020>022-031>034-043>046-201600-
   NORTHWEST IOWA

CITY           SKY/WX    TMP DP  RH WIND       PRES   REMARKS
CARROLL *      FOG       36  36 100 S8        29.59R VSB<1/4 WCI  29
CHEROKEE *     CLOUDY    36  36 100 S6        29.57R FOG     WCI  31
DENISON *      CLOUDY    39  39 100 S8        29.57R FOG     WCI  34
LE MARS *      CLOUDY    37  37 100 S7        29.56S FOG     WCI  32
ORANGE CITY *  FOG       36  36 100 S5        29.55R VSB 1/4 WCI  32
SHELDON *      FOG       36  36 100 S9        29.54R VSB<1/4 WCI  29
SIOUX CITY     CLOUDY    39  38  96 SE7       29.56S FOG     WCI  34
SPENCER        CLOUDY    35  35 100 SE8       29.56R FOG     WCI  29
STORM LAKE *   MIX PCPN  34  34 100 SE7       29.56S VSB<1/4 WCI  28
$$

IAZ055>058-069>071-079>083-090>094-201600-
   SOUTHWEST IOWA

CITY           SKY/WX    TMP DP  RH WIND       PRES   REMARKS
ATLANTIC *     FOG       37  36  93 CALM      29.59F VSB 1/2
AUDUBON *      FOG       37  36  93 CALM      29.60R VSB 1/2
CLARINDA *     CLOUDY    37  37 100 N3        29.60S FOG
COUNCIL BLFS * PTSUNNY   39  39 100 SE7       29.58S FOG     WCI  34
CRESTON *      FOG       37  37 100 NE6       29.60F VSB<1/4 WCI  33
HARLAN  *      CLOUDY    37  37 100 CALM      29.61F FOG
LAMONI         FOG       38  37  97 NE7       29.58F VSB 1/4 WCI  33
RED OAK *      CLOUDY    39  39 100 MISG      29.59S
SHENANDOAH *   CLOUDY    37  37 100 NE3       29.59R FOG
$$

IAZ047>049-059>061-072>074-084-201600-
   CENTRAL IOWA

CITY           SKY/WX    TMP DP  RH WIND       PRES   REMARKS
AMES           CLOUDY    36  36 100 S5        29.61R FOG     WCI  32
ANKENY *       CLOUDY    37  37 100 S8        29.64R FOG     WCI  31
BOONE *        FOG       36  36 100 SE7       29.60R VSB 1/4 WCI  30
CHARITON *     FOG       37  37 100 E5        29.60F VSB<1/4 WCI  34
DES MOINES     FOG       37  37 100 S8        29.63R VSB 1/4 WCI  31
GRINNELL*      FOG       35  35 100 E6        29.62R VSB 1/4 WCI  30
KNOXVILLE *    FOG       37  37 100 S6        29.61R VSB<1/4 WCI  33
MARSHALLTOWN   FOG       35  35 100 E7        29.60R VSB 1/4 WCI  29
NEWTON *       FOG       36  36 100 SE8       29.62R VSB<1/4 WCI  29
PELLA *        FOG       36  36  99 CALM      29.64R VSB 1/4
PERRY *        FOG       36  35  98 S6        29.62R VSB 3/4 WCI  31
$$

IAZ004>006-015-016-023>025-035-036-201600-
   NORTH CENTRAL IOWA

CITY           SKY/WX    TMP DP  RH WIND       PRES   REMARKS
ALGONA *       FOG       34  34 100 SE7       29.58R VSB<1/4 WCI  28
CLARION *      FOG       34  34 100 SE7       29.59R VSB 1/4 WCI  28
ESTHERVILLE    FOG       33  33 100 S5        29.54F VSB 1/4 WCI  29
FORT DODGE *   CLOUDY    34  30  86 SE3       29.60R VSB 1/4
MASON CITY     FOG       33  33 100 E8        29.60S VSB 1/4 WCI  26
FOREST CITY *  FOG       34  34 100 E8        29.58R VSB 1/4 WCI  27
WEBSTER CITY * FOG       36  36 100 SE7       29.57S VSB<1/4 WCI  30
IOWA FALLS *   FOG       35  34  98 CALM      29.60R VSB 1/4
$$

IAZ007>011-017>019-026>030-037>042-050>054-066-201600-
   NORTHEAST IOWA

CITY           SKY/WX    TMP DP  RH WIND       PRES   REMARKS
CEDAR RAPIDS   FOG       35  35 100 SE5       29.62R VSB 3/4 WCI  31
CHARLES CITY * FOG       34  34 100 SE7       29.62R VSB<1/4 WCI  28
CLINTON *      CLOUDY    37  36  96 SE6       29.65R FOG     WCI  32
DECORAH *      FOG       36  34  93 VRB5      29.61S VSB 3/4 WCI  32
DUBUQUE        FOG       35  35 100 SE3       29.63R VSB 1/4
MONTICELLO *   CLOUDY    36  36 100 CALM      29.63R FOG
OELWEIN *      FOG       34  34 100 SE6       29.63R VSB 3/4 WCI  29
WATERLOO       FOG       35  34  96 E6        29.62S VSB 3/4 WCI  30
$$

IAZ064-065-067-068-078-201600-
   EAST CENTRAL IOWA

CITY           SKY/WX    TMP DP  RH WIND       PRES   REMARKS
DAVENPORT      FOG       37  37 100 SE3       29.64R VSB 1/4
IOWA CITY      CLOUDY    37  36  96 E7        29.66R FOG     WCI  32
MUSCATINE *    FOG       37  37 100 CALM      29.66R VSB 1/2
QUAD CITIES    FOG       38  37  97 CALM      29.64R VSB 1
$$

IAZ062-063-075>077-085>089-095>099-201600-
   SOUTHEAST IOWA

CITY           SKY/WX    TMP DP  RH WIND       PRES   REMARKS
BURLINGTON     FOG       38  38 100 NE5       29.63S VSB 1/4 WCI  34
FAIRFIELD *    FOG       37  37 100 CALM      29.63S VSB<1/4
FORT MADISON * FOG       37  37 100 SE6       29.65R VSB 1/4 WCI  33
KEOKUK *       FOG       39 N/A N/A CALM      29.63S VSB<1/4
OSKALOOSA *    FOG       35  35  99 CALM      29.63R VSB 1/2
OTTUMWA        FOG       37  36  96 NE5       29.62S VSB 1/4 WCI  33
WASHINGTON *   FOG       36  36 100 CALM      29.65R VSB<1/4
$$

ABBREVIATIONS USED IN REMARKS
   TC - TEMPERATURES IN CELSIUS
  WCI - WIND CHILL INDEX
   HX - HEAT INDEX
  VSB - VISIBILITY
$$





USA.gov is the U.S. government's official web portal to all federal, state and local government web resources and services.